Location: Ajisawe
(8.4333°N, 4.3833°E)
Time: 21:59:36
(UTC+00:00)

Vanguard 2 Rocket - Pass Details

Date: 23 April 2021
Orbit: 554 x 3326 km, 32.9° (Epoch: 16 May)

Event Time Altitude Azimuth Distance (km) Brightness Sun altitude
Rises 09:13:31 0° 233° (SW) 4,292 10.0 53.6°
Reaches altitude 10° 09:15:52 10° 233° (SW) 3,594 9.7 54.2°
Maximum altitude 09:25:46 86° 145° (SE) 2,160 10.0 56.6°
Drops below altitude 10° 09:43:16 10° 57° (ENE) 5,952 11.6 60.8°
Sets 09:48:27 0° 57° (ENE) 7,177 11.8 62.1°
